Tiempo atmosférico en la estación meteorológica de La Póveda de Soria, Barriomartín, Soria (1260 m.)



Fecha
DESCASC
Temp. máxima en grados centígrados (hora)
DESCASC
Temp. mínima en grados centígrados (hora)
DESCASC
Temp. media en grados centígrados
DESCASC
Racha de viento máxima en m/sg (hora)
DESCASC
Velocidad máxima media en intervalos de 10 minutos(hora)
DESCASC
Precipitaciones diarias en mm
DESCASC
Precipitaciones de 00:00 a 06:00 en mm
DESCASC
Precipitaciones de 06:00 a 12:00 en mm
DESCASC
Precipitaciones de 12:00 a 18:00 en mm
DESCASC
Precipitaciones de 18:00 a 24:00 en mm
DESCASC
02-08-2020 18.8 (13:20) 12.4 (23:50) 15.6 13.33 (20:50) 8.06 (21:00) 0 0 0 0 0
01-08-2020 30.3 (16:20) 13.9 (07:30) 22.1 12.78 (19:10) 8.06 (21:00) 0 0 0 0 0
31-07-2020 30.7 (18:50) 12.1 (06:20) 21.4 6.67 (13:50) 3.61 (17:30) 0 0 0 0 0
30-07-2020 31.7 (15:00) 13.9 (00:00) 22.8 15.83 (16:40) 7.78 (16:40) 14.6 0 0 14 0.6
29-07-2020 30.5 (15:40) 14.5 (00:00) 22.5 8.61 (18:40) 4.72 (18:30) 0.4 0 0 0 0.4
28-07-2020 29 (14:10) 14.8 (06:50) 21.9 9.17 (14:50) 5.28 (15:20) 0 0 0 0 0
27-07-2020 34.2 (16:30) 13.4 (00:00) 23.8 9.72 (19:00) 5.83 (19:50) 0 0 0 0 0
26-07-2020 30.9 (18:00) 11.4 (00:00) 21.1 8.06 (16:10) 4.72 (14:50) 0 0 0 0 0
25-07-2020 30.2 (17:00) 10 (05:30) 20.1 8.06 (15:30) 5 (01:10) 0 0 0 0 0
24-07-2020 24.5 (12:30) 14.2 (00:00) 19.3 9.44 (22:00) 6.11 (22:20) 0 0 0 0 0
23-07-2020 28.1 (13:50) 12.6 (00:00) 20.4 7.78 (16:50) 5 (23:30) 0 0 0 0 0
22-07-2020 28.8 (16:50) 12.3 (06:50) 20.5 8.89 (00:50) 5 (00:40) 0 0 0 0 0
21-07-2020 -- (--) -- (--) -- -- (--) -- (--) -- 0 0 -- --
20-07-2020 30.6 (17:10) 11.7 (07:00) 21.2 7.22 (20:20) 4.17 (18:50) 0 0 0 0 0
19-07-2020 29.7 (15:40) 10.7 (00:00) 20.2 8.89 (19:50) 4.72 (23:30) 1 0 0 0 1
18-07-2020 30 (17:20) 8.5 (00:00) 19.3 10.28 (00:10) 6.39 (00:10) 0 0 0 0 0
17-07-2020 22.5 (14:50) 12.2 (00:00) 17.3 11.39 (18:40) 7.78 (19:40) 0 0 0 0 0
16-07-2020 24.1 (15:30) 11.4 (00:00) 17.8 10.83 (20:30) 7.22 (21:00) 0 0 0 0 0
15-07-2020 18.6 (17:50) 9.3 (07:50) 14 12.5 (09:10) 8.33 (10:00) 0 0 0 0 0
14-07-2020 21.2 (15:00) 10.1 (00:00) 15.7 12.22 (18:40) 7.78 (01:50) 0 0 0 0 0
13-07-2020 21.9 (16:20) 12 (23:59) 16.9 11.39 (18:20) 7.5 (18:20) 0 0 0 0 0
12-07-2020 26.8 (16:40) 12.5 (05:40) 19.6 15.83 (18:50) 8.89 (18:50) 8 0 0.8 0 7.2
11-07-2020 26.5 (14:30) 10.8 (06:20) 18.7 9.17 (16:10) 6.11 (01:20) 0 0 0 0 0
10-07-2020 -- (--) -- (--) -- -- (--) -- (--) -- -- -- -- 0
09-07-2020 -- (--) -- (--) -- -- (--) -- (--) -- 0 0 -- --
08-07-2020 27.7 (17:10) 12.3 (06:20) 20 6.39 (19:00) 3.89 (07:40) 0 0 0 0 0

Gráficas

Temp. máximas Temp. mínimas Temp. medias Precipitaciones Rachas de viento máximas Velocidades máximas media en intervalos de 10 minutos

Datos horarios

Fecha y hora oficial Temperatura (ºC) Velocidad del viento (km/h) Dirección del viento Racha (km/h) Dirección de racha Precipitación (mm) Presión (hPa) Tendencia (hPa) Humedad (%)
2020-08-06 23:00:00 18.6 8 Norte 13 Norte 0 -- -- 67
2020-08-06 22:00:00 20.9 7 Norte 12 Norte 0 -- -- 62
2020-08-06 21:00:00 24.3 5 Oeste 11 Sudoeste 0 -- -- 52
2020-08-06 20:00:00 27.1 9 Sudeste 22 Este 0 -- -- 46
2020-08-06 19:00:00 27.8 3 Norte 9 Sudoeste 0 -- -- 52
2020-08-06 18:00:00 29.8 7 Sur 21 Sur 0 -- -- 36
2020-08-06 17:00:00 31.4 11 Sur 21 Sur 0 -- -- 38
2020-08-06 16:00:00 31.4 7 Sudoeste 21 Sudoeste 0 -- -- 35
2020-08-06 15:00:00 30.2 10 Sudeste 22 Sudeste 0 -- -- 32
2020-08-06 14:00:00 29.8 7 Sur 26 Sudeste 0 -- -- 41
2020-08-06 13:00:00 28.2 9 Sur 19 Sudeste 0 -- -- 44
2020-08-06 12:00:00 26.4 9 Sur 22 Sudeste 0 -- -- 50
2020-08-06 11:00:00 24.7 9 Sudeste 17 Sudeste 0 -- -- 49
2020-08-06 10:00:00 23.2 3 Este 5 Nordeste 0 -- -- 46
2020-08-06 09:00:00 17.2 5 Norte 10 Norte 0 -- -- 60
2020-08-06 08:00:00 13 8 Norte 15 Norte 0 -- -- 61
2020-08-06 07:00:00 12.2 9 Norte 15 Norte 0 -- -- 62
2020-08-06 06:00:00 12.3 11 Norte 15 Norte 0 -- -- 63
2020-08-06 05:00:00 12.1 9 Norte 13 Norte 0 -- -- 63
2020-08-06 04:00:00 12.4 9 Norte 13 Norte 0 -- -- 60
2020-08-06 03:00:00 12.8 7 Norte 14 Norte 0 -- -- 59
2020-08-06 02:00:00 14.2 10 Norte 15 Norte 0 -- -- 53
2020-08-06 01:00:00 14.9 10 Norte 14 Noroeste 0 -- -- 50
2020-08-06 00:00:00 15.9 6 Norte 14 Norte 0 -- -- 47
2020-08-05 23:00:00 16.9 12 Norte 18 Norte 0 -- -- 43
2020-08-05 22:00:00 17.9 8 Norte 15 Norte 0 -- -- 47
2020-08-05 21:00:00 21.5 9 Noroeste 19 Nordeste 0 -- -- 37
2020-08-05 20:00:00 25.3 10 Norte 23 Este 0 -- -- 30
2020-08-05 19:00:00 26.6 15 Este 24 Este 0 -- -- 31
2020-08-05 18:00:00 28 12 Este 23 Nordeste 0 -- -- 31
2020-08-05 17:00:00 29.3 5 Sudeste 15 Sur 0 -- -- 30
2020-08-05 16:00:00 28.6 8 Sudeste 18 Noroeste 0 -- -- 31
2020-08-05 15:00:00 28 2 Noroeste 17 Nordeste 0 -- -- 33
2020-08-05 14:00:00 27.3 4 Nordeste 16 Sudoeste 0 -- -- 37
2020-08-05 13:00:00 26.4 7 Sur 16 Sur 0 -- -- 41
2020-08-05 12:00:00 24.4 6 Sudeste 12 Sudeste 0 -- -- 41
2020-08-05 11:00:00 22.3 4 Sudeste 12 Sudeste 0 -- -- 47
2020-08-05 10:00:00 20.7 3 Este 8 Norte 0 -- -- 53
2020-08-05 09:00:00 15.8 6 Norte 13 Norte 0 -- -- 58
2020-08-05 08:00:00 10.2 9 Norte 14 Norte 0 -- -- 54
2020-08-05 07:00:00 7.9 8 Norte 16 Norte 0 -- -- 52
2020-08-05 06:00:00 8 10 Norte 14 Norte 0 -- -- 48
2020-08-05 05:00:00 9.3 11 Norte 18 Norte 0 -- -- 44
2020-08-05 04:00:00 9.8 10 Norte 22 Norte 0 -- -- 50
2020-08-05 03:00:00 10.4 12 Norte 17 Norte 0 -- -- 63
2020-08-05 02:00:00 11.9 12 Norte 17 Norte 0 -- -- 73
2020-08-05 01:00:00 12 9 Norte 17 Noroeste 0 -- -- 80
2020-08-05 00:00:00 13.7 10 Noroeste 27 Norte 0 -- -- 76
2020-08-04 23:00:00 15.2 18 Norte 27 Norte 0 -- -- 71
2020-08-04 22:00:00 15.7 16 Norte 35 Norte 0 -- -- 70
2020-08-04 21:00:00 17.1 17 Norte 30 Norte 0 -- -- 65
2020-08-04 20:00:00 19.2 16 Norte 30 Noroeste 0 -- -- 59
2020-08-04 19:00:00 20.7 17 Norte 32 Norte 0 -- -- 55
2020-08-04 18:00:00 21.3 18 Norte 30 Norte 0 -- -- 54
2020-08-04 17:00:00 21.9 17 Norte 32 Noroeste 0 -- -- 52
2020-08-04 16:00:00 22.2 13 Norte 25 Norte 0 -- -- 51
2020-08-04 15:00:00 21.1 12 Norte 23 Norte 0 -- -- 46
2020-08-04 14:00:00 20.6 10 Noroeste 25 Norte 0 -- -- 56
2020-08-04 13:00:00 19.3 7 Norte 21 Noroeste 0 -- -- 61
2020-08-04 12:00:00 18 9 Norte 21 Noroeste 0 -- -- 62
2020-08-04 11:00:00 15.6 9 Norte 22 Nordeste 0 -- -- 67
2020-08-04 10:00:00 14.1 9 Norte 23 Norte 0 -- -- 72
2020-08-04 09:00:00 11.7 12 Norte 23 Norte 0 -- -- 79
2020-08-04 08:00:00 10.3 4 Norte 16 Norte 0 -- -- 87
2020-08-04 07:00:00 9.9 6 Norte 24 Noroeste 0 -- -- 83
2020-08-04 06:00:00 10.6 15 Norte 28 Norte 0 -- -- 80
2020-08-04 05:00:00 10.3 18 Norte 26 Norte 0 -- -- 77
2020-08-04 04:00:00 9.8 5 Noroeste 17 Norte 0 -- -- 75
2020-08-04 03:00:00 11 10 Norte 24 Norte 0 -- -- 70
2020-08-04 02:00:00 11.1 10 Norte 28 Norte 0 -- -- 68
2020-08-04 01:00:00 11.6 21 Norte 41 Norte 0 -- -- 76
2020-08-04 00:00:00 11.9 27 Norte 40 Norte 0 -- -- 78
2020-08-03 23:00:00 12.8 20 Norte 36 Norte 0 -- -- 76
2020-08-03 22:00:00 13.9 15 Norte 28 Norte 0 -- -- 74
2020-08-03 21:00:00 15.5 15 Norte 40 Norte 0 -- -- 69
2020-08-03 20:00:00 16.9 21 Norte 41 Norte 0 -- -- 65
2020-08-03 19:00:00 18.2 24 Norte 41 Norte 0 -- -- 59
2020-08-03 18:00:00 19.3 25 Norte 39 Norte 0 -- -- 57
2020-08-03 17:00:00 19.7 23 Norte 36 Norte 0 -- -- 55
2020-08-03 16:00:00 19.7 23 Norte 36 Norte 0 -- -- 55
2020-08-03 15:00:00 19.6 15 Norte 28 Norte 0 -- -- 55
2020-08-03 14:00:00 19.1 18 Norte 32 Norte 0 -- -- 54
2020-08-03 13:00:00 18.2 12 Norte 26 Nordeste 0 -- -- 56
2020-08-03 12:00:00 17 16 Norte 29 Norte 0 -- -- 55
2020-08-03 11:00:00 15.8 17 Norte 29 Norte 0 -- -- 56
2020-08-03 10:00:00 14 18 Norte 29 Norte 0 -- -- 62
2020-08-03 09:00:00 12.1 15 Norte 25 Norte 0 -- -- 72
2020-08-03 08:00:00 9.8 4 Noroeste 32 Nordeste 0 -- -- 85
2020-08-03 07:00:00 9.9 13 Nordeste 25 Norte 0 -- -- 82
2020-08-03 06:00:00 10.2 11 Nordeste 28 Norte 0 -- -- 82
2020-08-03 05:00:00 10.8 11 Norte 30 Norte 0 -- -- 83
2020-08-03 04:00:00 11.5 19 Norte 35 Norte 0 -- -- 79
2020-08-03 03:00:00 11.6 23 Norte 42 Norte 0 -- -- 78
2020-08-03 02:00:00 11.8 26 Norte 43 Norte 0 -- -- 80
2020-08-03 01:00:00 11.9 27 Norte 44 Norte 0 -- -- 78
2020-08-03 00:00:00 12.4 21 Norte 37 Norte 0 -- -- 80
2020-08-02 23:00:00 12.7 20 Norte 43 Norte 0 -- -- 78
2020-08-02 22:00:00 12.7 21 Norte 46 Norte 0 -- -- 81
2020-08-02 21:00:00 12.9 29 Norte 48 Norte 0 -- -- 84
2020-08-02 20:00:00 14 23 Norte 41 Norte 0 -- -- 83
2020-08-02 19:00:00 14.6 26 Norte 44 Norte 0 -- -- 82
2020-08-02 18:00:00 15.6 24 Norte 43 Norte 0 -- -- 78
2020-08-02 17:00:00 16.1 27 Norte 45 Norte 0 -- -- 77
2020-08-02 16:00:00 16.7 26 Norte 39 Norte 0 -- -- 77
2020-08-02 15:00:00 18 21 Norte 39 Noroeste 0 -- -- 73
2020-08-02 14:00:00 17.6 23 Norte 40 Norte 0 -- -- 75
2020-08-02 13:00:00 17.4 21 Norte 36 Norte 0 -- -- 75
2020-08-02 12:00:00 17.9 22 Norte 34 Norte 0 -- -- 71
2020-08-02 11:00:00 16.8 19 Norte 31 Norte 0 -- -- 74
2020-08-02 10:00:00 16.3 17 Norte 30 Nordeste 0 -- -- 75
2020-08-02 09:00:00 15.4 14 Norte 28 Noroeste 0 -- -- 79
2020-08-02 08:00:00 13.6 17 Norte 28 Norte 0 -- -- 86
2020-08-02 07:00:00 13.1 17 Norte 30 Norte 0 -- -- 89
2020-08-02 06:00:00 13.4 18 Norte 29 Norte 0 -- -- 89
2020-08-02 05:00:00 13.5 18 Norte 29 Norte 0 -- -- 88
2020-08-02 04:00:00 13.5 17 Norte 32 Norte 0 -- -- 88
2020-08-02 03:00:00 13.8 21 Norte 33 Norte 0 -- -- 88
2020-08-02 02:00:00 13.9 22 Norte 35 Norte 0 -- -- 89
2020-08-02 01:00:00 14.1 20 Norte 42 Norte 0 -- -- 88
2020-08-02 00:00:00 14.6 21 Norte 36 Norte 0 -- -- 85
2020-08-01 23:00:00 15.1 25 Norte 42 Noroeste 0 -- -- 85
2020-08-01 22:00:00 15.6 29 Norte 44 Noroeste 0 -- -- 85
2020-08-01 21:00:00 16.6 29 Norte 46 Norte 0 -- -- 82
2020-08-01 20:00:00 18.9 25 Norte 46 Norte 0 -- -- 74
2020-08-01 19:00:00 21.6 23 Norte 37 Norte 0 -- -- 67
2020-08-01 18:00:00 24.3 19 Norte 35 Norte 0 -- -- 62
2020-08-01 17:00:00 27.9 12 Norte 24 Noroeste 0 -- -- 53
2020-08-01 16:00:00 30 9 Noroeste 26 Oeste 0 -- -- 33
2020-08-01 15:00:00 29.3 11 Sudoeste 23 Sudoeste 0 -- -- 35
2020-08-01 14:00:00 28.8 8 Norte 18 Sudeste 0 -- -- 41
2020-08-01 13:00:00 27.4 9 Este 16 Sudeste 0 -- -- 47
2020-08-01 12:00:00 25.9 6 Sudeste 14 Sur 0 -- -- 49
2020-08-01 11:00:00 24.5 5 Sur 12 Sudeste 0 -- -- 49
2020-08-01 10:00:00 23.3 7 Sudeste 11 Sudeste 0 -- -- 54
2020-08-01 09:00:00 18.8 5 Norte 11 Norte 0 -- -- 72
2020-08-01 08:00:00 15.7 10 Norte 15 Norte 0 -- -- 74
2020-08-01 07:00:00 14.2 7 Norte 16 Norte 0 -- -- 76
2020-08-01 06:00:00 14.6 9 Norte 13 Norte 0 -- -- 74
2020-08-01 05:00:00 15.3 9 Norte 14 Norte 0 -- -- 71
2020-08-01 04:00:00 15.9 8 Norte 17 Norte 0 -- -- 69
2020-08-01 03:00:00 16.8 10 Norte 16 Norte 0 -- -- 66
2020-08-01 02:00:00 16.8 9 Norte 17 Norte 0 -- -- 67
2020-08-01 01:00:00 16.9 9 Norte 14 Norte 0 -- -- 69
2020-08-01 00:00:00 17.8 6 Norte 15 Noroeste 0 -- -- 68
2020-07-31 23:00:00 18.6 8 Norte 14 Norte 0 -- -- 66
2020-07-31 22:00:00 19.6 8 Norte 15 Norte 0 -- -- 67
2020-07-31 21:00:00 23 7 Noroeste 10 Noroeste 0 -- -- 50
2020-07-31 20:00:00 28.5 4 Noroeste 14 Sudoeste 0 -- -- 44
2020-07-31 19:00:00 30.6 2 Sudoeste 18 Sur 0 -- -- 33
2020-07-31 18:00:00 30.6 9 Sudoeste 20 Sudoeste 0 -- -- 36
2020-07-31 17:00:00 30.3 12 Sudoeste 22 Sur 0 -- -- 35
2020-07-31 16:00:00 29.9 9 Sur 21 Sur 0 -- -- 41
2020-07-31 15:00:00 29.4 12 Sudoeste 21 Sudoeste 0 -- -- 41
2020-07-31 14:00:00 28.6 11 Sudoeste 24 Sudoeste 0 -- -- 42
2020-07-31 13:00:00 27.2 12 Sudoeste 22 Sudoeste 0 -- -- 50
2020-07-31 12:00:00 26.1 9 Sudeste 16 Sudeste 0 -- -- 55
2020-07-31 11:00:00 23.8 8 Sudeste 12 Sudeste 0 -- -- 54
2020-07-31 10:00:00 21.4 5 Sur 9 Sudeste 0 -- -- 69
2020-07-31 09:00:00 16.6 5 Norte 11 Norte 0 -- -- 85
2020-07-31 08:00:00 13.4 7 Norte 16 Norte 0 -- -- 90
2020-07-31 07:00:00 12.4 8 Norte 14 Norte 0 -- -- 91
2020-07-31 06:00:00 12.2 8 Norte 12 Norte 0 -- -- 91
2020-07-31 05:00:00 12.9 8 Norte 14 Norte 0 -- -- 90
2020-07-31 04:00:00 13.2 10 Norte 17 Norte 0 -- -- 89
2020-07-31 03:00:00 13.6 11 Norte 17 Norte 0 -- -- 88
2020-07-31 02:00:00 13.8 8 Norte 15 Norte 0 -- -- 89
2020-07-31 01:00:00 14.5 9 Norte 15 Norte 0 -- -- 88
2020-07-31 00:00:00 15.5 12 Norte 18 Noroeste 0 -- -- 88
2020-07-30 23:00:00 16.3 5 Norte 22 Norte 0 -- -- 86
2020-07-30 22:00:00 16.9 9 Oeste 17 Sudoeste 0 -- -- 84
2020-07-30 21:00:00 17.3 3 Sudeste 19 Sudeste 0 -- -- 83
2020-07-30 20:00:00 17.3 9 Oeste 43 Noroeste 0.4 -- -- 84
2020-07-30 19:00:00 17.3 16 Norte 29 Noroeste 0.2 -- -- 82
2020-07-30 18:00:00 16.1 13 Norte 40 Noroeste 9.8 -- -- 85
2020-07-30 17:00:00 16.4 27 Norte 57 Noroeste 4.2 -- -- 84
2020-07-30 16:00:00 30.5 5 Este 19 Sur 0 -- -- 41
2020-07-30 15:00:00 31.7 10 Sur 24 Sur 0 -- -- 32
2020-07-30 14:00:00 30.4 8 Sur 15 Sudoeste 0 -- -- 45
2020-07-30 13:00:00 28.5 8 Oeste 17 Sur 0 -- -- 49
2020-07-30 12:00:00 27.1 9 Sur 22 Sur 0 -- -- 45
2020-07-30 11:00:00 25.9 13 Sur 22 Sur 0 -- -- 47
2020-07-30 10:00:00 24.1 5 Este 8 Sudeste 0 -- -- 56
2020-07-30 09:00:00 19.8 4 Norte 10 Norte 0 -- -- 79
2020-07-30 08:00:00 16 7 Norte 12 Norte 0 -- -- 86
2020-07-30 07:00:00 14.8 8 Norte 14 Norte 0 -- -- 87
2020-07-30 06:00:00 14.5 9 Norte 14 Norte 0 -- -- 87
2020-07-30 05:00:00 14.7 12 Norte 17 Norte 0 -- -- 86
2020-07-30 04:00:00 14.7 9 Norte 15 Norte 0 -- -- 83
2020-07-30 03:00:00 14.3 10 Norte 14 Norte 0 -- -- 81
2020-07-30 02:00:00 14.2 12 Norte 18 Norte 0 -- -- 78
2020-07-30 01:00:00 14.5 7 Norte 17 Norte 0 -- -- 81
2020-07-30 00:00:00 15.2 13 Norte 19 Norte 0 -- -- 82
2020-07-29 23:00:00 17.1 9 Norte 15 Norte 0 -- -- 84
2020-07-29 22:00:00 18.7 14 Norte 26 Norte 0 -- -- 86
2020-07-29 21:00:00 20 8 Oeste 14 Noroeste 0.2 -- -- 80
2020-07-29 20:00:00 23.2 9 Oeste 22 Sudeste 0.2 -- -- 69
2020-07-29 19:00:00 26.2 13 Nordeste 31 Este 0 -- -- 54
2020-07-29 18:00:00 27.7 10 Nordeste 24 Este 0 -- -- 52
2020-07-29 17:00:00 29.6 8 Este 18 Sudoeste 0 -- -- 43
2020-07-29 16:00:00 30.1 7 Sudoeste 19 Noroeste 0 -- -- 38
2020-07-29 15:00:00 28.5 4 Sudeste 20 Sur 0 -- -- 42
2020-07-29 14:00:00 28.7 12 Sur 19 Sudoeste 0 -- -- 47
2020-07-29 13:00:00 27.3 9 Sur 19 Sur 0 -- -- 53
2020-07-29 12:00:00 26 5 Sur 13 Sudeste 0 -- -- 57
2020-07-29 11:00:00 24.8 7 Sudoeste 14 Sudoeste 0 -- -- 60
2020-07-29 10:00:00 23.3 6 Sur 10 Sudoeste 0 -- -- 63
2020-07-29 09:00:00 19.2 5 Norte 12 Norte 0 -- -- 79
2020-07-29 08:00:00 15.6 6 Norte 12 Norte 0 -- -- 90
2020-07-29 07:00:00 14.6 6 Norte 10 Noroeste 0 -- -- 90
2020-07-29 06:00:00 15.1 6 Norte 11 Norte 0 -- -- 89
2020-07-29 05:00:00 15.8 7 Norte 11 Norte 0 -- -- 87
2020-07-29 04:00:00 16.3 6 Norte 13 Norte 0 -- -- 86
2020-07-29 03:00:00 16.2 8 Norte 13 Norte 0 -- -- 85
2020-07-29 02:00:00 16.4 7 Norte 15 Norte 0 -- -- 83
2020-07-29 01:00:00 16.9 8 Norte 26 Norte 0 -- -- 83
2020-07-29 00:00:00 17.5 15 Norte 28 Norte 0 -- -- 83
2020-07-28 23:00:00 17.4 14 Norte 25 Norte 0 -- -- 85
2020-07-28 22:00:00 18 18 Norte 27 Norte 0 -- -- 83
2020-07-28 21:00:00 19.7 16 Norte 29 Norte 0 -- -- 77
2020-07-28 20:00:00 22.9 13 Norte 27 Norte 0 -- -- 68
2020-07-28 19:00:00 25.1 10 Norte 27 Noroeste 0 -- -- 63
2020-07-28 18:00:00 26 11 Este 32 Nordeste 0 -- -- 59
2020-07-28 17:00:00 26.8 9 Nordeste 32 Norte 0 -- -- 57
2020-07-28 16:00:00 27.3 17 Este 33 Este 0 -- -- 53
2020-07-28 15:00:00 27.6 17 Nordeste 33 Este 0 -- -- 53
2020-07-28 14:00:00 28.7 7 Sudeste 21 Sur 0 -- -- 41
2020-07-28 13:00:00 27.9 7 Sur 21 Sudeste 0 -- -- 45
2020-07-28 12:00:00 27 9 Sur 16 Sudoeste 0 -- -- 45
2020-07-28 11:00:00 26 5 Sur 13 Sudeste 0 -- -- 50
2020-07-28 10:00:00 24.1 5 Sudeste 9 Sudeste 0 -- -- 56
2020-07-28 09:00:00 20.2 3 Norte 9 Norte 0 -- -- 77
2020-07-28 08:00:00 15.9 9 Norte 13 Norte 0 -- -- 86
2020-07-28 07:00:00 14.8 8 Norte 12 Norte 0 -- -- 84
2020-07-28 06:00:00 15.1 7 Norte 13 Norte 0 -- -- 85
2020-07-28 05:00:00 15.6 7 Norte 13 Norte 0 -- -- 84
2020-07-28 04:00:00 16.9 7 Norte 15 Norte 0 -- -- 79
2020-07-28 03:00:00 17.8 11 Norte 18 Norte 0 -- -- 77
2020-07-28 02:00:00 18.7 7 Noroeste 14 Norte 0 -- -- 76
2020-07-28 01:00:00 20.1 8 Norte 19 Este 0 -- -- 72
2020-07-28 00:00:00 20.7 6 Norte 24 Noroeste 0 -- -- 69
2020-07-27 23:00:00 19.5 7 Norte 19 Nordeste 0 -- -- 76
2020-07-27 22:00:00 19.8 10 Norte 19 Norte 0 -- -- 81
2020-07-27 21:00:00 23.4 8 Norte 18 Noroeste 0 -- -- 74
2020-07-27 20:00:00 23.9 13 Norte 31 Norte 0 -- -- 71
2020-07-27 19:00:00 28.4 16 Nordeste 35 Este 0 -- -- 51
2020-07-27 18:00:00 30.9 5 Este 19 Sur 0 -- -- 40
2020-07-27 17:00:00 33.9 11 Sudoeste 22 Sudoeste 0 -- -- 34
2020-07-27 16:00:00 33.1 5 Sudeste 18 Sudeste 0 -- -- 31
2020-07-27 15:00:00 31.8 14 Sur 22 Sudeste 0 -- -- 34
2020-07-27 14:00:00 30.4 11 Sur 21 Sudoeste 0 -- -- 38
2020-07-27 13:00:00 28.9 12 Sur 19 Sur 0 -- -- 43
2020-07-27 12:00:00 27.6 9 Sur 17 Sur 0 -- -- 49
2020-07-27 09:00:00 -- -- -- -- -- -- -- -- --
2020-07-27 08:00:00 -- -- -- -- -- -- -- -- --
2020-07-27 07:00:00 -- -- -- -- -- -- -- -- --
2020-07-27 06:00:00 -- -- -- -- -- -- -- -- --
2020-07-27 05:00:00 14.2 9 Norte 13 Norte 0 -- -- 81
2020-07-27 04:00:00 14.8 9 Norte 15 Norte 0 -- -- 78
2020-07-27 03:00:00 15.2 8 Norte 17 Norte 0 -- -- 75
2020-07-27 02:00:00 15.4 10 Norte 14 Norte 0 -- -- 75
2020-07-27 01:00:00 15.3 8 Norte 12 Norte 0 -- -- 75
2020-07-27 00:00:00 15.8 7 Norte 15 Norte 0 -- -- 71
2020-07-26 23:00:00 16.9 9 Norte 13 Norte 0 -- -- 65
2020-07-26 22:00:00 19.9 4 Norte 12 Noroeste 0 -- -- 65
2020-07-26 21:00:00 23.2 3 Este 19 Norte 0 -- -- 56
2020-07-26 20:00:00 26.4 8 Noroeste 17 Sur 0 -- -- 48
2020-07-26 19:00:00 30.1 6 Sudoeste 24 Sudoeste 0 -- -- 33
2020-07-26 18:00:00 30.9 10 Sudoeste 23 Sudoeste 0 -- -- 27
2020-07-26 17:00:00 30.3 12 Sur 29 Sudoeste 0 -- -- 30
2020-07-26 16:00:00 29.8 15 Sur 26 Sudoeste 0 -- -- 34
2020-07-26 15:00:00 29.1 11 Sudoeste 28 Sudoeste 0 -- -- 38
2020-07-26 14:00:00 27.9 15 Sudoeste 28 Sur 0 -- -- 42
2020-07-26 13:00:00 25.8 12 Sudeste 21 Sur 0 -- -- 44
2020-07-26 12:00:00 24.4 9 Sur 18 Sudeste 0 -- -- 48
2020-07-26 11:00:00 23.4 9 Sur 21 Sudeste 0 -- -- 51
2020-07-26 10:00:00 22.2 6 Sur 12 Sur 0 -- -- 57
2020-07-26 09:00:00 18.5 4 Norte 9 Norte 0 -- -- 70
2020-07-26 08:00:00 13.3 7 Norte 12 Norte 0 -- -- 81
2020-07-26 07:00:00 11.6 7 Norte 11 Norte 0 -- -- 83
2020-07-26 06:00:00 12.1 6 Norte 10 Norte 0 -- -- 81
2020-07-26 05:00:00 13.8 5 Norte 16 Norte 0 -- -- 74
2020-07-26 04:00:00 14.3 6 Norte 17 Noroeste 0 -- -- 75
2020-07-26 03:00:00 14 10 Norte 16 Norte 0 -- -- 74
2020-07-26 02:00:00 14.9 8 Norte 15 Norte 0 -- -- 74
2020-07-26 01:00:00 16.3 8 Norte 14 Norte 0 -- -- 75
2020-07-26 00:00:00 18 8 Norte 17 Norte 0 -- -- 70
2020-07-25 23:00:00 20.3 6 Nordeste 22 Norte 0 -- -- 58
2020-07-25 22:00:00 21.2 14 Norte 22 Norte 0 -- -- 57
2020-07-25 21:00:00 23.3 3 Sudoeste 14 Noroeste 0 -- -- 48
2020-07-25 20:00:00 27.6 7 Oeste 19 Oeste 0 -- -- 35
2020-07-25 19:00:00 30 5 Oeste 20 Sudoeste 0 -- -- 34
2020-07-25 18:00:00 29.2 9 Sudoeste 22 Sur 0 -- -- 36
2020-07-25 17:00:00 30.2 9 Sudoeste 26 Sudoeste 0 -- -- 36
2020-07-25 16:00:00 29.3 14 Sudoeste 29 Sudoeste 0 -- -- 39
2020-07-25 15:00:00 28.1 11 Sudoeste 22 Sudoeste 0 -- -- 40
2020-07-25 14:00:00 26.7 8 Sur 18 Sudeste 0 -- -- 38
2020-07-25 13:00:00 26 11 Sur 21 Sur 0 -- -- 41
2020-07-25 12:00:00 23.8 6 Sudeste 14 Este 0 -- -- 39
2020-07-25 11:00:00 22.3 6 Sudeste 12 Sudeste 0 -- -- 37
2020-07-25 10:00:00 20.3 6 Sudeste 11 Sudeste 0 -- -- 45
2020-07-25 09:00:00 17.2 5 Norte 13 Norte 0 -- -- 61
2020-07-25 08:00:00 12.5 7 Norte 13 Norte 0 -- -- 67
2020-07-25 07:00:00 10.6 8 Norte 13 Norte 0 -- -- 68
2020-07-25 06:00:00 10.1 9 Norte 16 Norte 0 -- -- 66
2020-07-25 05:00:00 10.2 13 Norte 18 Nordeste 0 -- -- 64
2020-07-25 04:00:00 10.7 9 Norte 13 Noroeste 0 -- -- 64
2020-07-25 03:00:00 13.1 6 Noroeste 26 Norte 0 -- -- 55
2020-07-25 02:00:00 14.8 16 Norte 27 Norte 0 -- -- 50
2020-07-25 01:00:00 14.9 17 Norte 27 Norte 0 -- -- 63
2020-07-25 00:00:00 15.1 17 Norte 28 Norte 0 -- -- 72
2020-07-24 23:00:00 15.2 15 Norte 34 Norte 0 -- -- 76
2020-07-24 22:00:00 16.2 19 Noroeste 34 Noroeste 0 -- -- 73
2020-07-24 21:00:00 18.1 13 Norte 31 Norte 0 -- -- 66
2020-07-24 20:00:00 20.3 18 Norte 32 Norte 0 -- -- 61
2020-07-24 19:00:00 22.1 16 Norte 29 Norte 0 -- -- 58
2020-07-24 18:00:00 22.7 18 Norte 27 Norte 0 -- -- 59
2020-07-24 17:00:00 24 11 Nordeste 23 Este 0 -- -- 57
2020-07-24 16:00:00 24.2 7 Norte 19 Nordeste 0 -- -- 59
2020-07-24 15:00:00 23.7 5 Este 18 Este 0 -- -- 59
2020-07-24 14:00:00 22.4 6 Nordeste 20 Sudoeste 0 -- -- 61
2020-07-24 13:00:00 24.5 9 Sur 21 Sudeste 0 -- -- 57
2020-07-24 12:00:00 23.4 6 Sur 17 Sudoeste 0 -- -- 60
2020-07-24 11:00:00 22.1 6 Sur 12 Sudeste 0 -- -- 62
2020-07-24 10:00:00 20.8 4 Sur 11 Sudeste 0 -- -- 68
2020-07-24 09:00:00 19 4 Este 12 Noroeste 0 -- -- 69
2020-07-24 08:00:00 15.3 6 Norte 21 Norte 0 -- -- 79
2020-07-24 07:00:00 14.9 15 Norte 28 Norte 0 -- -- 80
2020-07-24 06:00:00 14.2 5 Norte 13 Norte 0 -- -- 78
2020-07-24 05:00:00 15.7 8 Noroeste 19 Norte 0 -- -- 78
2020-07-24 04:00:00 16.9 12 Norte 22 Norte 0 -- -- 76
2020-07-24 03:00:00 16.6 14 Norte 26 Norte 0 -- -- 78
2020-07-24 02:00:00 16.5 13 Norte 25 Norte 0 -- -- 81
2020-07-24 01:00:00 17.1 13 Norte 27 Norte 0 -- -- 81
2020-07-24 00:00:00 17.4 13 Norte 25 Norte 0 -- -- 82
2020-07-23 23:00:00 17.8 13 Norte 20 Norte 0 -- -- 79
2020-07-23 22:00:00 19.1 13 Noroeste 21 Nordeste 0 -- -- 75
2020-07-23 21:00:00 21.5 11 Norte 22 Norte 0 -- -- 66
2020-07-23 20:00:00 23.4 11 Norte 22 Norte 0 -- -- 55
2020-07-23 19:00:00 25 10 Norte 19 Norte 0 -- -- 54
2020-07-23 18:00:00 25 10 Nordeste 27 Este 0 -- -- 57
2020-07-23 17:00:00 24.8 16 Nordeste 28 Nordeste 0 -- -- 57
2020-07-23 16:00:00 25.3 12 Nordeste 24 Norte 0 -- -- 54
2020-07-23 15:00:00 26.9 4 Nordeste 16 Nordeste 0 -- -- 44
2020-07-23 14:00:00 27.5 7 Oeste 17 Sudoeste 0 -- -- 41
2020-07-23 13:00:00 27.7 5 Sur 15 Sudeste 0 -- -- 40
2020-07-23 12:00:00 26.3 6 Sudeste 13 Sudoeste 0 -- -- 39
2020-07-23 11:00:00 25.2 7 Sur 13 Sur 0 -- -- 51
2020-07-23 10:00:00 23.4 0 Calma 7 Nordeste 0 -- -- 48
2020-07-23 09:00:00 19 5 Norte 14 Norte 0 -- -- 67
2020-07-23 08:00:00 14.5 6 Norte 12 Norte 0 -- -- 76
2020-07-23 07:00:00 12.6 6 Norte 9 Norte 0 -- -- 80
2020-07-23 06:00:00 12.9 7 Norte 12 Norte 0 -- -- 79
2020-07-23 05:00:00 13.1 6 Norte 13 Norte 0 -- -- 79
2020-07-23 04:00:00 13.9 8 Norte 16 Norte 0 -- -- 78
2020-07-23 03:00:00 14.2 10 Norte 17 Norte 0 -- -- 78
2020-07-23 02:00:00 15.1 9 Norte 18 Norte 0 -- -- 76
2020-07-23 01:00:00 16 11 Norte 18 Norte 0 -- -- 74
2020-07-23 00:00:00 16.5 5 Norte 14 Noroeste 0 -- -- 71
2020-07-22 23:00:00 17.9 7 Norte 18 Norte 0 -- -- 69
2020-07-22 22:00:00 19.7 9 Norte 20 Norte 0 -- -- 65
2020-07-22 21:00:00 22.6 7 Norte 22 Nordeste 0 -- -- 57
2020-07-22 20:00:00 24.7 12 Nordeste 27 Este 0 -- -- 49
2020-07-22 19:00:00 25.9 9 Nordeste 24 Nordeste 0 -- -- 47
2020-07-22 18:00:00 26 14 Este 21 Nordeste 0 -- -- 46
2020-07-22 17:00:00 28.8 9 Sudoeste 21 Sudoeste 0 -- -- 34
2020-07-22 16:00:00 27.1 12 Sur 26 Sur 0 -- -- 38
2020-07-22 15:00:00 27.1 11 Sudoeste 24 Sudoeste 0 -- -- 41
2020-07-22 14:00:00 26.2 12 Sudoeste 28 Sudoeste 0 -- -- 46
2020-07-22 13:00:00 25.3 13 Sur 23 Sur 0 -- -- 43
2020-07-22 12:00:00 23.3 2 Sur 12 Sudeste 0 -- -- 48
2020-07-22 11:00:00 21.3 7 Sudeste 19 Sudeste 0 -- -- 59
2020-07-22 10:00:00 19.3 6 Sur 14 Sudeste 0 -- -- 71
2020-07-22 09:00:00 15.6 5 Norte 12 Norte 0 -- -- 89
2020-07-22 08:00:00 13.9 3 Noroeste 16 Norte 0 -- -- 91
2020-07-22 07:00:00 12.4 11 Norte 17 Norte 0 -- -- 91
2020-07-22 06:00:00 12.5 11 Norte 15 Norte 0 -- -- 91
2020-07-22 05:00:00 12.7 9 Norte 14 Norte 0 -- -- 90
2020-07-22 04:00:00 13.3 9 Norte 13 Norte 0 -- -- 89
2020-07-22 03:00:00 14.3 5 Norte 22 Noroeste 0 -- -- 84
2020-07-22 02:00:00 16.8 5 Norte 22 Noroeste 0 -- -- 73
2020-07-22 01:00:00 17.3 14 Norte 32 Norte 0 -- -- 70
2020-07-22 00:00:00 16.8 18 Norte 33 Norte 0 -- -- 75
2020-07-21 23:00:00 15.7 8 Norte 26 Norte 0 -- -- 84
2020-07-21 22:00:00 15.1 12 Norte 26 Norte 0 -- -- 89
2020-07-21 21:00:00 15.1 6 Noroeste -- -- -- -- -- 86
2020-07-21 20:00:00 -- -- -- -- -- -- -- -- --
2020-07-21 19:00:00 -- -- -- -- -- -- -- -- --
2020-07-21 18:00:00 -- -- -- -- -- -- -- -- --
2020-07-21 17:00:00 28.1 10 Nordeste 21 Norte 0 -- -- 48
2020-07-21 16:00:00 30.1 10 Sur 19 Sur 0 -- -- 27
2020-07-21 15:00:00 31.1 7 Sur 25 Sur 0 -- -- 33
2020-07-21 14:00:00 29.6 11 Sur 21 Sur 0 -- -- 38
2020-07-21 13:00:00 27.5 12 Sur 23 Sur 0 -- -- 46
2020-07-21 12:00:00 25.4 13 Sur 21 Sudeste 0 -- -- 51
2020-07-21 11:00:00 24 9 Sur 18 Sudeste 0 -- -- 60
2020-07-21 10:00:00 22.4 8 Sudeste 13 Sudeste 0 -- -- 64
2020-07-21 09:00:00 19.4 0 Calma 6 Norte 0 -- -- 79
2020-07-21 08:00:00 14.6 7 Norte 9 Norte 0 -- -- 90
2020-07-21 07:00:00 13.2 4 Norte 10 Norte 0 -- -- 91
2020-07-21 06:00:00 14.1 6 Norte 13 Norte 0 -- -- 90
2020-07-21 05:00:00 14.4 7 Norte 13 Noroeste 0 -- -- 90
2020-07-21 04:00:00 15.2 8 Norte 11 Noroeste 0 -- -- 88
2020-07-21 03:00:00 15.8 9 Norte 13 Norte 0 -- -- 87
2020-07-21 02:00:00 16.9 6 Norte 12 Norte 0 -- -- 82
2020-07-21 01:00:00 19.8 6 Nordeste 17 Oeste 0 -- -- 74
2020-07-21 00:00:00 20.4 7 Noroeste 23 Noroeste 0 -- -- 73
2020-07-20 23:00:00 21.1 9 Oeste 24 Nordeste 0 -- -- 69
2020-07-20 22:00:00 23.7 10 Nordeste 22 Nordeste 0 -- -- 52
2020-07-20 21:00:00 24.8 11 Nordeste 26 Nordeste 0 -- -- 51
2020-07-20 20:00:00 26.3 12 Nordeste 24 Nordeste 0 -- -- 51
2020-07-20 19:00:00 27.7 13 Nordeste 25 Nordeste 0 -- -- 48
2020-07-20 18:00:00 28.9 14 Este 24 Nordeste 0 -- -- 45
2020-07-20 17:00:00 30.3 5 Sur 13 Sudeste 0 -- -- 26
2020-07-20 16:00:00 29.7 8 Sudeste 21 Sudoeste 0 -- -- 35
2020-07-20 15:00:00 29 9 Sur 22 Sur 0 -- -- 37
2020-07-20 14:00:00 28.2 9 Sur 23 Sudeste 0 -- -- 42
2020-07-20 13:00:00 27.4 13 Sur 20 Sur 0 -- -- 49
2020-07-20 12:00:00 26.3 9 Sur 18 Sur 0 -- -- 53
2020-07-20 11:00:00 25.1 9 Sur 16 Sudoeste 0 -- -- 56
2020-07-20 10:00:00 23.5 6 Sudoeste 9 Sur 0 -- -- 55
2020-07-20 09:00:00 18.5 4 Norte 9 Norte 0 -- -- 73
2020-07-20 08:00:00 13.5 8 Norte 11 Norte 0 -- -- 80
2020-07-20 07:00:00 11.7 8 Norte 12 Norte 0 -- -- 83
2020-07-20 06:00:00 12.1 8 Norte 12 Norte 0 -- -- 82
2020-07-20 05:00:00 12.8 9 Norte 13 Norte 0 -- -- 80
2020-07-20 04:00:00 13.2 8 Norte 14 Norte 0 -- -- 80
2020-07-20 03:00:00 14.4 12 Norte 16 Norte 0 -- -- 74
2020-07-20 02:00:00 13.9 11 Norte 17 Norte 0 -- -- 80
2020-07-20 01:00:00 14.9 10 Norte 22 Sudoeste 0 -- -- 80
2020-07-20 00:00:00 16.4 15 Sudoeste 28 Este 0.6 -- -- 77
2020-07-19 23:00:00 19.4 6 Nordeste 23 Sur 0.4 -- -- 70
2020-07-19 22:00:00 23.5 8 Oeste 29 Nordeste 0 -- -- 39
2020-07-19 21:00:00 24.6 13 Este 28 Este 0 -- -- 34
2020-07-19 20:00:00 26.5 12 Nordeste 32 Nordeste 0 -- -- 38
2020-07-19 19:00:00 27.8 8 Nordeste 24 Nordeste 0 -- -- 39
2020-07-19 18:00:00 28.3 11 Este 28 Este 0 -- -- 39
2020-07-19 17:00:00 29.1 13 Este 23 Este 0 -- -- 36
2020-07-19 16:00:00 29.2 5 Nordeste 11 Nordeste 0 -- -- 30
2020-07-19 15:00:00 28.8 4 Sudeste 18 Este 0 -- -- 30
2020-07-19 14:00:00 28.1 8 Norte 26 Norte 0 -- -- 33
2020-07-19 13:00:00 28.5 6 Nordeste 15 Sudoeste 0 -- -- 30
2020-07-19 12:00:00 26.9 6 Sudoeste 14 Sudoeste 0 -- -- 39
2020-07-19 11:00:00 24.7 5 Sudeste 12 Sur 0 -- -- 41
2020-07-19 10:00:00 23.4 7 Sur 11 Sur 0 -- -- 46
2020-07-19 09:00:00 18.6 4 Norte 12 Norte 0 -- -- 62
2020-07-19 08:00:00 13.5 8 Norte 14 Norte 0 -- -- 68
2020-07-19 07:00:00 10.7 9 Norte 17 Norte 0 -- -- 75
2020-07-19 06:00:00 11.4 10 Norte 18 Norte 0 -- -- 72
2020-07-19 05:00:00 11.4 8 Norte 13 Norte 0 -- -- 78
2020-07-19 04:00:00 11.8 9 Norte 14 Norte 0 -- -- 80
2020-07-19 03:00:00 12.2 7 Norte 12 Norte 0 -- -- 77
2020-07-19 02:00:00 12.7 8 Norte 13 Norte 0 -- -- 75
2020-07-19 01:00:00 13.7 9 Norte 16 Norte 0 -- -- 67
2020-07-19 00:00:00 14.8 11 Norte 17 Norte 0 -- -- 64
2020-07-18 23:00:00 15.9 9 Norte 14 Noroeste 0 -- -- 65
2020-07-18 22:00:00 18.4 8 Norte 14 Noroeste 0 -- -- 59
2020-07-18 21:00:00 22 8 Noroeste 18 Norte 0 -- -- 51
2020-07-18 20:00:00 25.1 8 Norte 23 Este 0 -- -- 46
2020-07-18 19:00:00 26.4 11 Nordeste 23 Nordeste 0 -- -- 42
2020-07-18 18:00:00 28.3 9 Este 19 Este 0 -- -- 33
2020-07-18 17:00:00 29.2 5 Sudoeste 17 Sur 0 -- -- 30
2020-07-18 16:00:00 27.9 4 Sudoeste 18 Oeste 0 -- -- 28
2020-07-18 15:00:00 27.2 6 Sur 18 Sudeste 0 -- -- 28
2020-07-18 14:00:00 26.4 4 Sudeste 15 Sudoeste 0 -- -- 31
2020-07-18 13:00:00 25.2 6 Sudoeste 13 Sudoeste 0 -- -- 35
2020-07-18 12:00:00 23.2 6 Sur 12 Sur 0 -- -- 36
2020-07-18 11:00:00 20.9 4 Sudeste 10 Sudeste 0 -- -- 41
2020-07-18 10:00:00 19.3 4 Sudeste 9 Sudeste 0 -- -- 41
2020-07-18 09:00:00 16.2 2 Este 8 Norte 0 -- -- 54
2020-07-18 08:00:00 11.4 6 Norte 13 Norte 0 -- -- 64
2020-07-18 07:00:00 8.9 5 Norte 19 Noroeste 0 -- -- 68
2020-07-18 06:00:00 10.9 13 Norte 22 Norte 0 -- -- 65
2020-07-18 05:00:00 10.2 12 Norte 21 Norte 0 -- -- 67
2020-07-18 04:00:00 11.7 16 Norte 26 Noroeste 0 -- -- 63
2020-07-18 03:00:00 13 17 Norte 29 Norte 0 -- -- 53
2020-07-18 02:00:00 12.2 13 Norte 29 Norte 0 -- -- 65
2020-07-18 01:00:00 13.2 13 Norte 37 Norte 0 -- -- 61
2020-07-18 00:00:00 12.6 26 Norte 39 Norte 0 -- -- 73
2020-07-17 23:00:00 13 25 Norte 35 Norte 0 -- -- 74
2020-07-17 22:00:00 13.9 15 Norte 34 Norte 0 -- -- 71
2020-07-17 21:00:00 15.6 24 Norte 41 Norte 0 -- -- 63
2020-07-17 20:00:00 17.8 23 Norte 40 Norte 0 -- -- 56
2020-07-17 19:00:00 19.6 25 Norte 41 Norte 0 -- -- 49
2020-07-17 18:00:00 20.9 23 Norte 35 Norte 0 -- -- 46
2020-07-17 17:00:00 21.9 20 Norte 31 Noroeste 0 -- -- 38
2020-07-17 16:00:00 22.4 17 Norte 33 Noroeste 0 -- -- 40
2020-07-17 15:00:00 22.2 15 Norte 30 Noroeste 0 -- -- 42
2020-07-17 14:00:00 22 17 Norte 28 Noroeste 0 -- -- 41
2020-07-17 13:00:00 21.4 18 Noroeste 29 Noroeste 0 -- -- 41
2020-07-17 12:00:00 20.9 15 Norte 28 Norte 0 -- -- 41
2020-07-17 11:00:00 19.6 16 Norte 27 Nordeste 0 -- -- 41
2020-07-17 10:00:00 18 17 Norte 29 Norte 0 -- -- 49
2020-07-17 09:00:00 17 12 Norte 22 Norte 0 -- -- 51
2020-07-17 08:00:00 14.9 8 Norte 22 Norte 0 -- -- 56
2020-07-17 07:00:00 12.5 11 Norte 22 Norte 0 -- -- 63
2020-07-17 06:00:00 12.4 9 Norte 28 Norte 0 -- -- 60
2020-07-17 05:00:00 12.9 16 Norte 27 Norte 0 -- -- 55
2020-07-17 04:00:00 13 15 Noroeste 32 Norte 0 -- -- 55
2020-07-17 03:00:00 12.8 21 Norte 31 Norte 0 -- -- 54
2020-07-17 02:00:00 13.3 19 Norte 32 Norte 0 -- -- 53
2020-07-17 01:00:00 13.9 19 Norte 33 Norte 0 -- -- 60
2020-07-17 00:00:00 14.8 17 Norte 29 Norte 0 -- -- 52
2020-07-16 23:00:00 15 12 Norte 29 Norte 0 -- -- 51
2020-07-16 22:00:00 15.8 11 Norte 38 Norte 0 -- -- 61
2020-07-16 21:00:00 17.5 26 Norte 39 Norte 0 -- -- 59
2020-07-16 20:00:00 19.5 21 Norte 36 Norte 0 -- -- 59
2020-07-16 19:00:00 21.2 19 Norte 33 Norte 0 -- -- 56
2020-07-16 18:00:00 22.1 20 Norte 34 Norte 0 -- -- 54
2020-07-16 17:00:00 23.1 19 Norte 30 Noroeste 0 -- -- 52
2020-07-16 16:00:00 23.7 15 Nordeste 25 Nordeste 0 -- -- 48
2020-07-16 15:00:00 23.5 15 Norte 24 Norte 0 -- -- 50
2020-07-16 14:00:00 23.3 12 Norte 24 Nordeste 0 -- -- 50
2020-07-16 13:00:00 23 10 Nordeste 23 Noroeste 0 -- -- 47
2020-07-16 12:00:00 22 13 Norte 22 Norte 0 -- -- 51
2020-07-16 11:00:00 20.6 13 Norte 21 Norte 0 -- -- 52
2020-07-16 10:00:00 19.4 11 Norte 21 Norte 0 -- -- 55
2020-07-16 09:00:00 17.2 13 Norte 23 Norte 0 -- -- 50
2020-07-16 08:00:00 13.8 16 Norte 25 Norte 0 -- -- 43
2020-07-16 07:00:00 11.9 18 Norte 22 Norte 0 -- -- 40
2020-07-16 06:00:00 12.3 15 Norte 23 Norte 0 -- -- 37
2020-07-16 05:00:00 13.5 18 Norte 31 Norte 0 -- -- 36
2020-07-16 04:00:00 12.9 18 Norte 32 Norte 0 -- -- 41
2020-07-16 03:00:00 12.1 14 Norte 26 Noroeste 0 -- -- 49
2020-07-16 02:00:00 11.6 14 Norte 30 Noroeste 0 -- -- 59
2020-07-16 01:00:00 11.9 10 Noroeste 24 Noroeste 0 -- -- 63
2020-07-16 00:00:00 11.9 14 Norte 25 Norte 0 -- -- 69
2020-07-15 23:00:00 12.7 7 Norte 40 Norte 0 -- -- 71
2020-07-15 22:00:00 13.5 12 Norte 25 Noroeste 0 -- -- 71
2020-07-15 21:00:00 15.1 15 Norte 31 Norte 0 -- -- 67
2020-07-15 20:00:00 16.8 21 Norte 36 Norte 0 -- -- 63
2020-07-15 19:00:00 18 25 Norte 39 Norte 0 -- -- 57
2020-07-15 18:00:00 18.4 24 Norte 35 Norte 0 -- -- 57
2020-07-15 17:00:00 18 21 Norte 33 Norte 0 -- -- 62
2020-07-15 16:00:00 17.9 21 Norte 36 Norte 0 -- -- 63
2020-07-15 15:00:00 17.9 21 Norte 33 Norte 0 -- -- 60
2020-07-15 14:00:00 17.6 19 Norte 30 Nordeste 0 -- -- 60
2020-07-15 13:00:00 16.8 15 Norte 27 Norte 0 -- -- 64
2020-07-15 12:00:00 16.4 18 Norte 33 Norte 0 -- -- 67
2020-07-15 11:00:00 14.9 17 Norte 37 Norte 0 -- -- 71
2020-07-15 10:00:00 13.7 30 Norte 45 Norte 0 -- -- 70
2020-07-15 09:00:00 12.4 20 Norte 42 Norte 0 -- -- 68
2020-07-15 08:00:00 9.3 21 Norte 34 Norte 0 -- -- 50
2020-07-15 07:00:00 10.2 18 Norte 29 Norte 0 -- -- 33
2020-07-15 06:00:00 10.1 14 Norte 27 Norte 0 -- -- 28
2020-07-15 05:00:00 10 15 Norte 28 Norte 0 -- -- 32
2020-07-15 04:00:00 10.6 15 Norte 27 Norte 0 -- -- 40
2020-07-15 03:00:00 10.7 14 Norte 31 Norte 0 -- -- 50
2020-07-15 02:00:00 10.7 19 Norte 34 Norte 0 -- -- 60
2020-07-15 01:00:00 10.5 21 Norte 33 Norte 0 -- -- 64
2020-07-15 00:00:00 10.4 15 Norte 28 Nordeste 0 -- -- 66
2020-07-14 23:00:00 11.8 10 Norte 35 Norte 0 -- -- 62
2020-07-14 22:00:00 13.1 19 Norte 29 Norte 0 -- -- 60
2020-07-14 21:00:00 15.4 13 Norte 32 Norte 0 -- -- 60
2020-07-14 20:00:00 17.3 19 Norte 40 Norte 0 -- -- 53
2020-07-14 19:00:00 19.1 21 Norte 44 Norte 0 -- -- 49
2020-07-14 18:00:00 20 23 Norte 37 Norte 0 -- -- 43
2020-07-14 17:00:00 20.4 20 Norte 33 Norte 0 -- -- 41
2020-07-14 16:00:00 21 16 Norte 28 Noroeste 0 -- -- 37
2020-07-14 15:00:00 21.2 15 Norte 27 Norte 0 -- -- 33
2020-07-14 14:00:00 21 9 Norte 30 Norte 0 -- -- 30
2020-07-14 13:00:00 19.9 13 Norte 28 Norte 0 -- -- 31
2020-07-14 12:00:00 18.7 18 Norte 30 Norte 0 -- -- 30
2020-07-14 11:00:00 17.3 19 Norte 33 Norte 0 -- -- 20
2020-07-14 10:00:00 16.6 12 Norte 24 Norte 0 -- -- 26
2020-07-14 09:00:00 13.7 17 Norte 28 Norte 0 -- -- 29
2020-07-14 08:00:00 11.7 13 Norte 24 Norte 0 -- -- 34
2020-07-14 07:00:00 11.3 14 Norte 28 Norte 0 -- -- 33
2020-07-14 06:00:00 10.2 10 Norte 24 Norte 0 -- -- 41
2020-07-14 05:00:00 10.5 14 Norte 29 Norte 0 -- -- 50
2020-07-14 04:00:00 10.2 15 Norte 29 Norte 0 -- -- 59
2020-07-14 03:00:00 10.7 19 Norte 35 Norte 0 -- -- 62
2020-07-14 02:00:00 11.2 25 Norte 43 Norte 0 -- -- 64
2020-07-14 01:00:00 12 25 Norte 40 Norte 0 -- -- 64
2020-07-14 00:00:00 12 20 Norte 36 Norte 0 -- -- 68
2020-07-13 23:00:00 13 21 Norte 36 Norte 0 -- -- 67
2020-07-13 22:00:00 14.7 22 Norte 41 Nordeste 0 -- -- 67
2020-07-13 21:00:00 16.5 20 Norte 37 Nordeste 0 -- -- 65
2020-07-13 20:00:00 18.6 14 Norte 37 Norte 0 -- -- 61
2020-07-13 19:00:00 19.7 21 Norte 41 Norte 0 -- -- 59
2020-07-13 18:00:00 21 18 Norte 37 Norte 0 -- -- 60
2020-07-13 17:00:00 21.2 22 Norte 37 Noroeste 0 -- -- 58
2020-07-13 16:00:00 21.5 18 Norte 30 Noroeste 0 -- -- 60
2020-07-13 15:00:00 21.2 16 Norte 25 Norte 0 -- -- 65
2020-07-13 14:00:00 21.1 14 Norte 26 Noroeste 0 -- -- 65
2020-07-13 13:00:00 20.3 12 Norte 23 Norte 0 -- -- 67
2020-07-13 12:00:00 19.1 12 Norte 27 Norte 0 -- -- 70
2020-07-13 11:00:00 17.8 17 Norte 26 Norte 0 -- -- 74
2020-07-13 10:00:00 16.7 11 Norte 29 Norte 0 -- -- 76
2020-07-13 09:00:00 15.4 12 Norte 24 Norte 0 -- -- 84
2020-07-13 08:00:00 13.9 12 Norte 20 Norte 0 -- -- 89
2020-07-13 07:00:00 12.8 7 Norte 20 Norte 0 -- -- 91
2020-07-13 06:00:00 13 9 Norte 20 Norte 0 -- -- 90
2020-07-13 05:00:00 12.8 7 Norte 21 Norte 0 -- -- 90
2020-07-13 04:00:00 13.7 14 Norte 23 Norte 0 -- -- 87
2020-07-13 03:00:00 13.3 10 Norte 24 Norte 0 -- -- 89
2020-07-13 02:00:00 12.3 5 Noroeste 13 Norte 0 -- -- 91
2020-07-13 01:00:00 13.1 7 Noroeste 24 Norte 0 -- -- 87
2020-07-13 00:00:00 13.6 14 Norte 39 Noroeste 0 -- -- 83
2020-07-12 23:00:00 13 11 Norte 24 Norte 0 -- -- 89
2020-07-12 22:00:00 13.1 12 Norte 23 Norte 1.8 -- -- 90
2020-07-12 21:00:00 13.8 10 Noroeste 22 Oeste 0.4 -- -- 89
2020-07-12 20:00:00 13.8 8 Noroeste 42 Oeste 5 -- -- 85
2020-07-12 19:00:00 19.1 26 Oeste 57 Oeste 0 -- -- 53
2020-07-12 18:00:00 24.4 14 Sur 26 Sur 0 -- -- 50
2020-07-12 17:00:00 25.8 11 Sudeste 23 Sur 0 -- -- 45
2020-07-12 16:00:00 25.9 11 Sur 27 Sur 0 -- -- 44
2020-07-12 15:00:00 26 10 Sur 24 Sudoeste 0 -- -- 48
2020-07-12 14:00:00 24.3 12 Sur 23 Sudeste 0 -- -- 53
2020-07-12 13:00:00 18.1 12 Norte 19 Norte 0 -- -- 70
2020-07-12 12:00:00 16.5 10 Sur 27 Sudeste 0 -- -- 77
2020-07-12 11:00:00 19.5 11 Sur 17 Sur 0 -- -- 77
2020-07-12 10:00:00 18.1 3 Sudoeste 12 Norte 0 -- -- 85
2020-07-12 09:00:00 15.2 8 Norte 13 Norte 0 -- -- 93
2020-07-12 08:00:00 14.4 6 Norte 13 Noroeste 0.8 -- -- 93
2020-07-12 07:00:00 13.8 8 Norte 13 Norte 0 -- -- 90
2020-07-12 06:00:00 12.5 5 Norte 12 Norte 0 -- -- 91
2020-07-12 05:00:00 12.8 7 Norte 12 Norte 0 -- -- 90
2020-07-12 04:00:00 13.1 7 Norte 13 Norte 0 -- -- 88
2020-07-12 03:00:00 13.8 4 Norte 12 Norte 0 -- -- 85
2020-07-12 02:00:00 14.7 7 Norte 11 Norte 0 -- -- 83
2020-07-12 01:00:00 15.7 7 Norte 12 Norte 0 -- -- 81
2020-07-12 00:00:00 16.3 7 Norte 12 Norte 0 -- -- 78
2020-07-11 23:00:00 17.6 8 Norte 17 Noroeste 0 -- -- 72
2020-07-11 22:00:00 18.8 11 Norte 21 Norte 0 -- -- 68
2020-07-11 21:00:00 20.9 4 Norte 27 Nordeste 0 -- -- 61
2020-07-11 20:00:00 22.4 12 Nordeste 26 Este 0 -- -- 58
2020-07-11 19:00:00 23.6 14 Este 23 Este 0 -- -- 55
2020-07-11 18:00:00 24.3 14 Nordeste 25 Nordeste 0 -- -- 54
2020-07-11 17:00:00 23.9 10 Nordeste 33 Este 0 -- -- 56
2020-07-11 16:00:00 25.3 14 Nordeste 29 Nordeste 0 -- -- 53
2020-07-11 15:00:00 26.3 12 Sur 26 Sur 0 -- -- 47
2020-07-11 14:00:00 26 7 Sur 19 Sur 0 -- -- 57
2020-07-11 13:00:00 23.9 9 Sudeste 17 Sudeste 0 -- -- 53
2020-07-11 12:00:00 23 8 Sudeste 15 Sudeste 0 -- -- 60
2020-07-11 11:00:00 21.6 7 Sur 14 Sudeste 0 -- -- 63
2020-07-11 10:00:00 20.6 4 Sur 9 Sur 0 -- -- 69
2020-07-11 09:00:00 18.4 4 Sudoeste 6 Sudoeste 0 -- -- 74
2020-07-11 08:00:00 13.9 5 Norte 10 Norte 0 -- -- 90
2020-07-11 07:00:00 11.3 9 Norte 13 Norte 0 -- -- 94
2020-07-11 06:00:00 11.2 2 Noroeste 13 Norte 0 -- -- 88
2020-07-11 05:00:00 12.3 6 Norte 14 Norte 0 -- -- 90
2020-07-11 04:00:00 12.1 7 Norte 18 Noroeste 0 -- -- 90
2020-07-11 03:00:00 12.6 10 Norte 30 Norte 0 -- -- 87
2020-07-11 02:00:00 12.8 13 Norte 32 Norte 0 -- -- 88
2020-07-11 01:00:00 13 19 Norte 32 Norte 0 -- -- 88
2020-07-11 00:00:00 13.1 21 Norte 36 Norte 0 -- -- 89
2020-07-10 23:00:00 14 17 Norte 29 Noroeste 0 -- -- 86
2020-07-10 22:00:00 14.8 19 Norte 32 Norte 0 -- -- 85
2020-07-10 21:00:00 16.1 19 Norte 35 Norte 0 -- -- 81
2020-07-10 20:00:00 18.8 17 Norte 30 Norte 0 -- -- 75
2020-07-10 19:00:00 20.6 13 Norte 23 Norte 0 -- -- 73
2020-07-10 18:00:00 20 10 Norte 21 Noroeste 0 -- -- 74
2020-07-10 17:00:00 19.4 15 Norte 28 Norte 0 -- -- 69
2020-07-10 16:00:00 21 12 Oeste 19 Oeste 0 -- -- 65
2020-07-10 15:00:00 21.6 8 Este 23 Este 0 -- -- 59
2020-07-10 14:00:00 24 11 Este 21 Este 0 -- -- 47
2020-07-10 13:00:00 24 8 Nordeste -- -- -- -- -- 45
2020-07-10 12:00:00 -- -- -- -- -- -- -- -- --
2020-07-10 11:00:00 -- -- -- -- -- -- -- -- --
2020-07-10 10:00:00 -- -- -- -- -- -- -- -- --
2020-07-10 09:00:00 -- -- -- -- -- -- -- -- --
2020-07-10 08:00:00 -- -- -- -- -- -- -- -- --
2020-07-10 07:00:00 -- -- -- -- -- -- -- -- --
2020-07-10 06:00:00 -- -- -- -- -- -- -- -- --
2020-07-10 05:00:00 -- -- -- -- -- -- -- -- --
2020-07-10 04:00:00 -- -- -- -- -- -- -- -- --
2020-07-10 03:00:00 -- -- -- -- -- -- -- -- --
2020-07-10 02:00:00 -- -- -- -- -- -- -- -- --
2020-07-10 01:00:00 -- -- -- -- -- -- -- -- --
2020-07-10 00:00:00 -- -- -- -- -- -- -- -- --
2020-07-09 23:00:00 -- -- -- -- -- -- -- -- --
2020-07-09 22:00:00 -- -- -- -- -- -- -- -- --
2020-07-09 21:00:00 -- -- -- -- -- -- -- -- --
2020-07-09 20:00:00 -- -- -- -- -- -- -- -- --
2020-07-09 19:00:00 -- -- -- -- -- -- -- -- --
2020-07-09 18:00:00 -- -- -- -- -- -- -- -- --
2020-07-09 17:00:00 -- -- -- -- -- -- -- -- --
2020-07-09 16:00:00 26.3 10 Sudeste 24 Este 0 -- -- 45
2020-07-09 15:00:00 28.2 10 Sur 25 Sudoeste 0 -- -- 38
2020-07-09 14:00:00 -- -- -- -- -- -- -- -- --
2020-07-09 13:00:00 26.1 6 Sur 15 Sur 0 -- -- 39
2020-07-09 12:00:00 25.3 5 Sudeste 13 Sur 0 -- -- 46
2020-07-09 11:00:00 22.3 5 Oeste 23 Sudeste 0 -- -- 57
2020-07-09 10:00:00 23.1 13 Sur 21 Sur 0 -- -- 50
2020-07-09 09:00:00 19 8 Norte 10 Noroeste 0 -- -- 67
2020-07-09 08:00:00 16.1 6 Norte 15 Norte 0 -- -- 70
2020-07-09 07:00:00 13.5 10 Norte 13 Norte 0 -- -- 74
2020-07-09 06:00:00 15.2 8 Norte 15 Norte 0 -- -- 67
2020-07-09 05:00:00 16 7 Norte 19 Noroeste 0 -- -- 63
2020-07-09 04:00:00 16.5 11 Norte 20 Norte 0 -- -- 61
2020-07-09 03:00:00 18 13 Norte 22 Norte 0 -- -- 56
2020-07-09 02:00:00 17.2 10 Norte 21 Norte 0 -- -- 61
2020-07-09 01:00:00 15.4 7 Norte 16 Norte 0 -- -- 64
2020-07-09 00:00:00 16 10 Norte 13 Norte 0 -- -- 61
2020-07-08 23:00:00 18.4 4 Sur 9 Sudeste 0 -- -- 55
2020-07-08 22:00:00 20.5 4 Sudoeste 22 Sudoeste 0 -- -- 47
2020-07-08 21:00:00 21.9 0 Calma 12 Oeste 0 -- -- 56
2020-07-08 20:00:00 23.6 5 Norte 17 Sudeste 0 -- -- 58
2020-07-08 19:00:00 23.5 12 Oeste 23 Oeste 0 -- -- 48
2020-07-08 18:00:00 25.7 4 Noroeste 7 Sudoeste 0 -- -- 56
2020-07-08 17:00:00 27.5 0 Calma 8 Noroeste 0 -- -- 47
2020-07-08 16:00:00 26.9 3 Este 19 Sur 0 -- -- 45
2020-07-08 15:00:00 27.3 10 Sur 20 Sudoeste 0 -- -- 45
2020-07-08 14:00:00 26.1 8 Sudoeste 17 Sur 0 -- -- 55
2020-07-08 13:00:00 23.6 3 Noroeste 6 Norte 0 -- -- 49
2020-07-08 12:00:00 22.3 6 Sudoeste 16 Oeste 0 -- -- 53
2020-07-08 11:00:00 22.1 9 Sur 18 Sur 0 -- -- 51
2020-07-08 10:00:00 20.4 6 Oeste 14 Oeste 0 -- -- 59
2020-07-08 09:00:00 17.9 6 Norte 12 Norte 0 -- -- 66
2020-07-08 08:00:00 15.1 12 Norte 17 Norte 0 -- -- 60
2020-07-08 07:00:00 12.4 6 Norte 17 Norte 0 -- -- 75
2020-07-08 06:00:00 12.4 8 Norte 13 Norte 0 -- -- 78
2020-07-08 05:00:00 13 9 Norte 14 Norte 0 -- -- 78
2020-07-08 04:00:00 13.2 8 Norte 13 Norte 0 -- -- 78
2020-07-08 03:00:00 13.5 9 Norte 14 Norte 0 -- -- 77
2020-07-08 02:00:00 12.8 6 Norte 10 Norte 0 -- -- 79
2020-07-08 01:00:00 14.6 7 Norte 15 Norte 0 -- -- 71
2020-07-08 00:00:00 15.9 11 Norte 18 Norte 0 -- -- 64